TimeEDT,TemperatureF,Dew PointF,Humidity,Sea Level PressureIn,VisibilityMPH,Wind Direction,Wind SpeedMPH,Gust SpeedMPH,PrecipitationIn,Events,Conditions,WindDirDegrees,DateUTC
12:53 AM,42.1,39.9,92,30.02,10.0,Calm,Calm,-,N/A,,Clear,0,2012-10-18 04:53:00
1:53 AM,42.1,41.0,96,30.03,9.0,Calm,Calm,-,N/A,,Clear,0,2012-10-18 05:53:00
2:53 AM,41.0,39.0,93,30.02,9.0,Calm,Calm,-,N/A,,Clear,0,2012-10-18 06:53:00
3:53 AM,41.0,37.9,89,30.03,8.0,Calm,Calm,-,N/A,,Clear,0,2012-10-18 07:53:00
4:53 AM,39.0,37.0,93,30.03,8.0,Calm,Calm,-,N/A,,Clear,0,2012-10-18 08:53:00
5:53 AM,37.9,37.0,97,30.05,7.0,Calm,Calm,-,N/A,,Clear,0,2012-10-18 09:53:00
6:53 AM,36.0,35.1,97,30.06,6.0,Calm,Calm,-,N/A,,Clear,0,2012-10-18 10:53:00
7:53 AM,39.0,37.9,96,30.08,7.0,Calm,Calm,-,N/A,,Clear,0,2012-10-18 11:53:00
8:53 AM,48.9,46.0,90,30.09,10.0,Calm,Calm,-,N/A,,Clear,0,2012-10-18 12:53:00
9:53 AM,60.1,48.9,67,30.10,10.0,SE,8.1,-,N/A,,Partly Cloudy,140,2012-10-18 13:53:00
10:53 AM,62.1,48.9,62,30.10,10.0,South,8.1,-,N/A,,Partly Cloudy,170,2012-10-18 14:53:00
11:53 AM,62.1,46.9,58,30.10,10.0,SSE,10.4,17.3,N/A,,Partly Cloudy,150,2012-10-18 15:53:00
12:53 PM,63.0,46.9,56,30.09,10.0,SE,11.5,-,N/A,,Clear,140,2012-10-18 16:53:00
1:53 PM,63.0,46.9,56,30.08,10.0,SSE,11.5,-,N/A,,Clear,150,2012-10-18 17:53:00
2:53 PM,63.0,48.0,58,30.07,10.0,SE,8.1,-,N/A,,Clear,140,2012-10-18 18:53:00
3:53 PM,62.1,48.0,60,30.07,10.0,SE,12.7,-,N/A,,Clear,140,2012-10-18 19:53:00
4:53 PM,61.0,50.0,67,30.07,10.0,South,6.9,-,N/A,,Partly Cloudy,180,2012-10-18 20:53:00
5:53 PM,57.9,50.0,75,30.07,10.0,SSE,6.9,-,N/A,,Clear,150,2012-10-18 21:53:00
6:53 PM,55.9,51.1,84,30.08,10.0,SE,5.8,-,N/A,,Mostly Cloudy,130,2012-10-18 22:53:00
7:13 PM,55.4,51.8,88,30.08,10.0,ESE,5.8,-,N/A,,Partly Cloudy,120,2012-10-18 23:13:00
7:53 PM,54.0,50.0,86,30.08,10.0,East,3.5,-,N/A,,Clear,90,2012-10-18 23:53:00
8:53 PM,50.0,48.0,93,30.09,10.0,Calm,Calm,-,N/A,,Clear,0,2012-10-19 00:53:00
9:53 PM,44.6,44.6,100,30.11,7.0,Calm,Calm,-,N/A,,Clear,0,2012-10-19 01:53:00
10:04 PM,46.4,44.6,93,30.11,1.8,Calm,Calm,-,N/A,,Clear,0,2012-10-19 02:04:00
10:17 PM,46.4,44.6,93,30.11,3.0,Calm,Calm,-,N/A,,Clear,0,2012-10-19 02:17:00
10:53 PM,46.0,44.1,93,30.10,8.0,Calm,Calm,-,N/A,,Partly Cloudy,0,2012-10-19 02:53:00
11:27 PM,44.6,42.8,93,30.09,2.5,NNE,3.5,-,N/A,,Clear,30,2012-10-19 03:27:00
11:34 PM,46.4,44.6,93,30.08,4.0,NE,3.5,-,N/A,,Clear,50,2012-10-19 03:34:00
11:53 PM,46.9,45.0,93,30.07,1.5,East,3.5,-,N/A,,Clear,90,2012-10-19 03:53:00